sat.trackr.live / text

‹ back to catalog

HULIANWANG DIGUI-124

NORAD 67064 · 2025-295F

PAYLOAD ACTIVE UNKNOWN

§ Identity

Operator
Country
PRC
Launch date
2025-12-11
Launch site
WSC
Launch vehicle
Mass (kg)
RCS (m²)

External: N2YO · Heavens-Above · Gunter

§ Orbital elements

Epoch: 2026-05-25T04:26:38.979168Z

Period
108.33 min
Inclination
49.9985°
Eccentricity
0.0000830
Mean motion
13.29325524 rev/d
Perigee alt
1,148.7 km
Apogee alt
1,149.9 km
Semi-major
7,527.4 km
B*
8.9436e-5
RAAN
107.8536°
Arg perigee
354.1197°
Mean anomaly
5.9665°
Rev number
2,244

§ Raw data

HULIANWANG DIGUI-1241 67064U 25295F   26145.18517337 -.00000083  00000+0  89436-4 0  99942 67064  49.9985 107.8536 0000830 354.1197   5.9665 13.29325524 22449

JSON: /api/v1/satellites/67064 · /tle

For live sub-satellite position, see the globe view (requires WebGL).

§ Visibility from observer

Set your observer location to see the next 7 days of passes ≥ 10°. The values pass through the URL so the page stays shareable.

No JS? Fill the form by hand. The geolocation button needs JavaScript.